Time,TemperatureF,DewpointF,PressureIn,WindDirection,WindDirectionDegrees,WindSpeedMPH,WindSpeedGustMPH,Humidity,HourlyPrecipIn,Conditions,Clouds,dailyrainin,SoftwareType,DateUTC
2013-07-08 00:01:00,77.7,73.6,30.14,South,180,0.0,0.0,87,0.00,,,0.00,WeatherCatV1.15B25,2013-07-08 04:01:00,
2013-07-08 00:06:00,77.7,73.6,30.14,SSW,202,0.0,0.0,87,0.00,,,0.00,WeatherCatV1.15B25,2013-07-08 04:06:00,
2013-07-08 00:11:00,77.7,73.6,30.15,SSW,202,0.0,0.0,87,0.00,,,0.00,WeatherCatV1.15B25,2013-07-08 04:11:00,
2013-07-08 00:16:00,77.7,73.6,30.15,SSW,202,0.0,0.0,87,0.00,,,0.00,WeatherCatV1.15B25,2013-07-08 04:16:00,
2013-07-08 00:21:00,77.7,73.6,30.15,South,180,0.0,0.0,87,0.00,,,0.00,WeatherCatV1.15B25,2013-07-08 04:21:00,
2013-07-08 00:26:00,77.7,73.6,30.15,SSW,202,0.0,0.0,87,0.00,,,0.00,WeatherCatV1.15B25,2013-07-08 04:26:00,
2013-07-08 00:31:00,77.7,73.6,30.15,SW,225,0.0,0.0,87,0.00,,,0.00,WeatherCatV1.15B25,2013-07-08 04:31:00,
2013-07-08 00:36:00,77.5,73.4,30.15,South,180,0.0,0.0,87,0.00,,,0.00,WeatherCatV1.15B25,2013-07-08 04:36:00,
2013-07-08 00:41:00,77.5,73.4,30.15,South,180,0.0,0.0,87,0.00,,,0.00,WeatherCatV1.15B25,2013-07-08 04:41:00,
2013-07-08 00:46:00,77.5,73.4,30.14,South,180,0.0,0.0,87,0.00,,,0.00,WeatherCatV1.15B25,2013-07-08 04:46:00,
2013-07-08 00:51:00,77.4,73.2,30.14,South,180,0.0,0.0,87,0.00,,,0.00,WeatherCatV1.15B25,2013-07-08 04:51:00,
2013-07-08 00:56:00,77.4,73.2,30.14,South,180,0.0,0.0,87,0.00,,,0.00,WeatherCatV1.15B25,2013-07-08 04:56:00,
2013-07-08 01:01:00,77.2,73.0,30.14,South,180,0.0,0.0,87,0.00,,,0.00,WeatherCatV1.15B25,2013-07-08 05:01:00,
2013-07-08 01:06:00,77.2,73.0,30.13,South,180,0.0,0.0,87,0.00,,,0.00,WeatherCatV1.15B25,2013-07-08 05:06:00,
2013-07-08 01:11:00,77.2,73.0,30.13,South,180,0.0,0.0,87,0.00,,,0.00,WeatherCatV1.15B25,2013-07-08 05:11:00,
2013-07-08 01:16:00,76.8,72.7,30.13,South,180,0.0,0.0,87,0.00,,,0.00,WeatherCatV1.15B25,2013-07-08 05:16:00,
2013-07-08 01:21:00,76.8,72.7,30.13,SSW,202,0.0,0.0,87,0.00,,,0.00,WeatherCatV1.15B25,2013-07-08 05:21:00,
2013-07-08 01:26:00,76.8,72.7,30.14,SSW,202,0.0,0.0,87,0.00,,,0.00,WeatherCatV1.15B25,2013-07-08 05:26:00,
2013-07-08 01:31:00,76.8,73.0,30.13,SSW,202,0.0,0.0,88,0.00,,,0.00,WeatherCatV1.15B25,2013-07-08 05:31:00,
2013-07-08 01:36:00,76.8,73.0,30.13,SSW,202,0.0,0.0,88,0.00,,,0.00,WeatherCatV1.15B25,2013-07-08 05:36:00,
2013-07-08 01:41:00,76.8,73.0,30.13,SSW,202,0.0,0.0,88,0.00,,,0.00,WeatherCatV1.15B25,2013-07-08 05:41:00,
2013-07-08 01:46:00,76.6,72.9,30.13,SSW,202,0.0,0.0,88,0.00,,,0.00,WeatherCatV1.15B25,2013-07-08 05:46:00,
2013-07-08 01:51:00,76.6,72.9,30.13,SSW,202,0.0,0.0,88,0.00,,,0.00,WeatherCatV1.15B25,2013-07-08 05:51:00,
2013-07-08 01:56:00,76.5,72.7,30.13,SSW,202,0.0,0.0,88,0.00,,,0.00,WeatherCatV1.15B25,2013-07-08 05:56:00,
2013-07-08 02:10:00,-999.0,72.5,30.13,SSW,202,0.0,0.0,88,0.00,,,0.00,WeatherCatV1.15B25,2013-07-08 06:10:00,
2013-07-08 02:15:00,76.1,72.3,30.13,SSW,202,0.0,0.0,88,0.00,,,0.00,WeatherCatV1.15B25,2013-07-08 06:15:00,
2013-07-08 02:20:00,76.1,72.3,30.13,SSW,202,0.0,0.0,88,0.00,,,0.00,WeatherCatV1.15B25,2013-07-08 06:20:00,
2013-07-08 02:25:00,75.9,72.2,30.13,SSW,202,0.0,0.0,88,0.00,,,0.00,WeatherCatV1.15B25,2013-07-08 06:25:00,
2013-07-08 02:30:00,75.9,72.2,30.13,SSW,202,0.0,0.0,88,0.00,,,0.00,WeatherCatV1.15B25,2013-07-08 06:30:00,
2013-07-08 02:35:00,75.9,72.2,30.13,SSW,202,0.0,0.0,88,0.00,,,0.00,WeatherCatV1.15B25,2013-07-08 06:35:00,
2013-07-08 02:40:00,75.9,72.2,30.13,SSW,202,0.0,0.0,88,0.00,,,0.00,WeatherCatV1.15B25,2013-07-08 06:40:00,
2013-07-08 02:45:00,75.9,72.2,30.13,SSW,202,0.0,0.0,88,0.00,,,0.00,WeatherCatV1.15B25,2013-07-08 06:45:00,
2013-07-08 02:50:00,75.9,72.2,30.13,SSW,202,0.0,0.0,88,0.00,,,0.00,WeatherCatV1.15B25,2013-07-08 06:50:00,
2013-07-08 02:55:00,75.7,72.0,30.13,SSW,202,0.0,0.0,88,0.00,,,0.00,WeatherCatV1.15B25,2013-07-08 06:55:00,
2013-07-08 03:00:00,75.7,72.0,30.13,SSW,202,0.0,0.0,88,0.00,,,0.00,WeatherCatV1.15B25,2013-07-08 07:00:00,
2013-07-08 03:08:00,75.7,72.0,30.13,SSW,202,0.0,0.0,88,0.00,,,0.00,WeatherCatV1.15B25,2013-07-08 07:08:00,
2013-07-08 03:13:00,75.6,71.8,30.13,SSW,202,0.0,0.0,88,0.00,,,0.00,WeatherCatV1.15B25,2013-07-08 07:13:00,
2013-07-08 03:18:00,75.6,71.8,30.13,SSW,202,0.0,0.0,88,0.00,,,0.00,WeatherCatV1.15B25,2013-07-08 07:18:00,
2013-07-08 03:23:00,75.6,71.8,30.13,SSW,202,0.0,0.0,88,0.00,,,0.00,WeatherCatV1.15B25,2013-07-08 07:23:00,
2013-07-08 03:28:00,75.6,71.8,30.13,SSW,202,0.0,0.0,88,0.00,,,0.00,WeatherCatV1.15B25,2013-07-08 07:28:00,
2013-07-08 03:33:00,75.4,72.0,30.13,SSW,202,0.0,0.0,89,0.00,,,0.00,WeatherCatV1.15B25,2013-07-08 07:33:00,
2013-07-08 03:38:00,75.4,72.0,30.13,SSW,202,0.0,0.0,89,0.00,,,0.00,WeatherCatV1.15B25,2013-07-08 07:38:00,
2013-07-08 03:43:00,75.4,72.0,30.13,SSW,202,0.0,0.0,89,0.00,,,0.00,WeatherCatV1.15B25,2013-07-08 07:43:00,
2013-07-08 03:48:00,75.4,72.0,30.13,SSW,202,0.0,0.0,89,0.00,,,0.00,WeatherCatV1.15B25,2013-07-08 07:48:00,
2013-07-08 03:53:00,75.4,72.0,30.13,SSW,202,0.0,0.0,89,0.00,,,0.00,WeatherCatV1.15B25,2013-07-08 07:53:00,
2013-07-08 03:58:00,75.4,72.0,30.13,SSW,202,0.0,0.0,89,0.00,,,0.00,WeatherCatV1.15B25,2013-07-08 07:58:00,
2013-07-08 04:01:00,75.4,72.0,30.13,SSW,202,0.0,0.0,89,0.00,,,0.00,WeatherCatV1.15B25,2013-07-08 08:01:00,
2013-07-08 04:06:00,75.4,72.0,30.13,SSW,202,0.0,0.0,89,0.00,,,0.00,WeatherCatV1.15B25,2013-07-08 08:06:00,
2013-07-08 04:11:00,75.2,71.8,30.13,SSW,202,0.0,0.0,89,0.00,,,0.00,WeatherCatV1.15B25,2013-07-08 08:11:00,
2013-07-08 04:16:00,75.0,71.6,30.13,SSW,202,0.0,0.0,89,0.00,,,0.00,WeatherCatV1.15B25,2013-07-08 08:16:00,
2013-07-08 04:21:00,75.0,71.6,30.14,SSW,202,0.0,0.0,89,0.00,,,0.00,WeatherCatV1.15B25,2013-07-08 08:21:00,
2013-07-08 04:26:00,75.0,71.6,30.13,SSW,202,0.0,0.0,89,0.00,,,0.00,WeatherCatV1.15B25,2013-07-08 08:26:00,
2013-07-08 04:31:00,75.0,71.6,30.13,SSW,202,0.0,0.0,89,0.00,,,0.00,WeatherCatV1.15B25,2013-07-08 08:31:00,
2013-07-08 04:36:00,75.0,71.6,30.13,SSW,202,0.0,0.0,89,0.00,,,0.00,WeatherCatV1.15B25,2013-07-08 08:36:00,
2013-07-08 04:41:00,74.8,71.4,30.13,SSW,202,0.0,0.0,89,0.00,,,0.00,WeatherCatV1.15B25,2013-07-08 08:41:00,
2013-07-08 04:46:00,74.8,71.4,30.14,SSW,202,0.0,0.0,89,0.00,,,0.00,WeatherCatV1.15B25,2013-07-08 08:46:00,
2013-07-08 04:51:00,74.8,71.4,30.14,SSW,202,0.0,0.0,89,0.00,,,0.00,WeatherCatV1.15B25,2013-07-08 08:51:00,
2013-07-08 04:56:00,74.8,71.4,30.14,SSW,202,0.0,0.0,89,0.00,,,0.00,WeatherCatV1.15B25,2013-07-08 08:56:00,
2013-07-08 05:10:00,74.8,71.4,30.13,SSW,202,0.0,0.0,89,0.00,,,0.00,WeatherCatV1.15B25,2013-07-08 09:10:00,
2013-07-08 05:15:00,74.7,71.3,30.13,SSW,202,0.0,0.0,89,0.00,,,0.00,WeatherCatV1.15B25,2013-07-08 09:15:00,
2013-07-08 05:20:00,74.7,71.3,30.13,SSW,202,0.0,0.0,89,0.00,,,0.00,WeatherCatV1.15B25,2013-07-08 09:20:00,
2013-07-08 05:25:00,74.5,71.1,30.13,SSW,202,0.0,0.0,89,0.00,,,0.00,WeatherCatV1.15B25,2013-07-08 09:25:00,
2013-07-08 05:30:00,74.5,71.1,30.13,SSW,202,0.0,0.0,89,0.00,,,0.00,WeatherCatV1.15B25,2013-07-08 09:30:00,
2013-07-08 05:35:00,74.5,71.1,30.13,SSW,202,0.0,0.0,89,0.00,,,0.00,WeatherCatV1.15B25,2013-07-08 09:35:00,
2013-07-08 05:40:00,74.5,71.1,30.14,SSW,202,0.0,0.0,89,0.00,,,0.00,WeatherCatV1.15B25,2013-07-08 09:40:00,
2013-07-08 05:45:00,74.3,70.9,30.14,SSW,202,0.0,0.0,89,0.00,,,0.00,WeatherCatV1.15B25,2013-07-08 09:45:00,
2013-07-08 05:50:00,74.3,70.9,30.14,SSW,202,0.0,0.0,89,0.00,,,0.00,WeatherCatV1.15B25,2013-07-08 09:50:00,
2013-07-08 05:55:00,74.3,70.9,30.14,SSW,202,0.0,0.0,89,0.00,,,0.00,WeatherCatV1.15B25,2013-07-08 09:55:00,
2013-07-08 06:00:00,74.3,70.9,30.14,SSW,202,0.0,0.0,89,0.00,,,0.00,WeatherCatV1.15B25,2013-07-08 10:00:00,
2013-07-08 06:01:00,74.3,70.9,30.14,SSW,202,0.0,0.0,89,0.00,,,0.00,WeatherCatV1.15B25,2013-07-08 10:01:00,
2013-07-08 06:06:00,74.1,70.7,30.14,SSW,202,0.0,0.0,89,0.00,,,0.00,WeatherCatV1.15B25,2013-07-08 10:06:00,
2013-07-08 06:11:00,74.1,70.7,30.14,SSW,202,0.0,0.0,89,0.00,,,0.00,WeatherCatV1.15B25,2013-07-08 10:11:00,
2013-07-08 06:16:00,73.9,70.5,30.15,SSW,202,0.0,0.0,89,0.00,,,0.00,WeatherCatV1.15B25,2013-07-08 10:16:00,
2013-07-08 06:21:00,73.9,70.5,30.15,SSW,202,0.0,0.0,89,0.00,,,0.00,WeatherCatV1.15B25,2013-07-08 10:21:00,
2013-07-08 06:26:00,73.9,70.5,30.15,SSW,202,0.0,0.0,89,0.00,,,0.00,WeatherCatV1.15B25,2013-07-08 10:26:00,
2013-07-08 06:31:00,73.9,70.5,30.15,SSW,202,0.0,0.0,89,0.00,,,0.00,WeatherCatV1.15B25,2013-07-08 10:31:00,
2013-07-08 06:36:00,73.9,70.5,30.15,SSW,202,0.0,0.0,89,0.00,,,0.00,WeatherCatV1.15B25,2013-07-08 10:36:00,
2013-07-08 06:41:00,73.9,70.5,30.16,SSW,202,0.0,0.0,89,0.00,,,0.00,WeatherCatV1.15B25,2013-07-08 10:41:00,
2013-07-08 06:46:00,73.9,70.5,30.15,SSW,202,0.0,0.0,89,0.00,,,0.00,WeatherCatV1.15B25,2013-07-08 10:46:00,
2013-07-08 06:51:00,74.1,70.7,30.16,SSW,202,0.0,0.0,89,0.00,,,0.00,WeatherCatV1.15B25,2013-07-08 10:51:00,
2013-07-08 06:56:00,74.1,70.7,30.16,SSW,202,0.0,0.0,89,0.00,,,0.00,WeatherCatV1.15B25,2013-07-08 10:56:00,
2013-07-08 07:01:00,74.1,70.7,30.15,SSW,202,0.0,0.0,89,0.00,,,0.00,WeatherCatV1.15B25,2013-07-08 11:01:00,
2013-07-08 07:06:00,74.1,70.7,30.15,SSW,202,0.0,0.0,89,0.00,,,0.00,WeatherCatV1.15B25,2013-07-08 11:06:00,
2013-07-08 07:11:00,73.9,70.5,30.15,SSW,202,0.0,0.0,89,0.00,,,0.00,WeatherCatV1.15B25,2013-07-08 11:11:00,
2013-07-08 07:16:00,74.1,70.7,30.16,SSW,202,0.0,0.0,89,0.00,,,0.00,WeatherCatV1.15B25,2013-07-08 11:16:00,
2013-07-08 07:21:00,74.3,70.9,30.16,SSW,202,0.0,0.0,89,0.00,,,0.00,WeatherCatV1.15B25,2013-07-08 11:21:00,
2013-07-08 07:26:00,74.3,70.9,30.16,SSW,202,0.0,0.0,89,0.00,,,0.00,WeatherCatV1.15B25,2013-07-08 11:26:00,
2013-07-08 07:31:00,74.7,71.3,30.16,SSW,202,0.0,0.0,89,0.00,,,0.00,WeatherCatV1.15B25,2013-07-08 11:31:00,
2013-07-08 07:36:00,74.8,71.4,30.16,SSW,202,0.0,0.0,89,0.00,,,0.00,WeatherCatV1.15B25,2013-07-08 11:36:00,
2013-07-08 07:41:00,75.0,71.6,30.16,SSW,202,0.0,0.0,89,0.00,,,0.00,WeatherCatV1.15B25,2013-07-08 11:41:00,
2013-07-08 07:46:00,75.2,71.8,30.16,East,90,0.0,0.0,89,0.00,,,0.00,WeatherCatV1.15B25,2013-07-08 11:46:00,
2013-07-08 07:51:00,75.4,72.0,30.16,East,90,0.0,0.0,89,0.00,,,0.00,WeatherCatV1.15B25,2013-07-08 11:51:00,
2013-07-08 07:56:00,75.6,72.5,30.17,ENE,67,0.0,0.0,90,0.00,,,0.00,WeatherCatV1.15B25,2013-07-08 11:56:00,
2013-07-08 08:01:00,75.9,72.9,30.17,ENE,67,0.0,0.0,90,0.00,,,0.00,WeatherCatV1.15B25,2013-07-08 12:01:00,
2013-07-08 08:06:00,76.1,73.0,30.17,NE,45,0.0,0.0,90,0.00,,,0.00,WeatherCatV1.15B25,2013-07-08 12:06:00,
2013-07-08 08:11:00,76.5,73.4,30.17,NE,45,0.0,0.0,90,0.00,,,0.00,WeatherCatV1.15B25,2013-07-08 12:11:00,
2013-07-08 08:16:00,76.8,73.8,30.17,NE,45,0.0,0.0,90,0.00,,,0.00,WeatherCatV1.15B25,2013-07-08 12:16:00,
2013-07-08 08:21:00,76.8,73.8,30.17,NNE,22,0.0,0.0,90,0.00,,,0.00,WeatherCatV1.15B25,2013-07-08 12:21:00,
2013-07-08 08:26:00,77.2,74.1,30.17,NNE,22,0.9,2.9,90,0.00,,,0.00,WeatherCatV1.15B25,2013-07-08 12:26:00,
2013-07-08 08:31:00,77.5,74.5,30.17,NE,45,2.5,2.5,90,0.00,,,0.00,WeatherCatV1.15B25,2013-07-08 12:31:00,
2013-07-08 08:36:00,77.7,74.7,30.17,NE,45,1.8,1.8,90,0.00,,,0.00,WeatherCatV1.15B25,2013-07-08 12:36:00,
2013-07-08 08:41:00,78.1,74.8,30.17,NE,45,1.8,1.8,90,0.00,,,0.00,WeatherCatV1.15B25,2013-07-08 12:41:00,
2013-07-08 08:46:00,78.4,75.0,30.18,NNE,22,2.5,2.5,89,0.00,,,0.00,WeatherCatV1.15B25,2013-07-08 12:46:00,
2013-07-08 08:51:00,78.6,75.2,30.17,ESE,112,0.0,0.0,89,0.00,,,0.00,WeatherCatV1.15B25,2013-07-08 12:51:00,
2013-07-08 08:56:00,79.0,75.2,30.18,West,270,0.0,0.0,88,0.00,,,0.00,WeatherCatV1.15B25,2013-07-08 12:56:00,
2013-07-08 09:01:00,79.3,75.5,30.18,East,90,1.1,1.3,88,0.00,,,0.00,WeatherCatV1.15B25,2013-07-08 13:01:00,
2013-07-08 09:06:00,79.5,75.7,30.18,NNE,22,0.0,0.0,88,0.00,,,0.00,WeatherCatV1.15B25,2013-07-08 13:06:00,
2013-07-08 09:11:00,79.7,76.0,30.18,NNE,22,0.0,0.0,88,0.00,,,0.00,WeatherCatV1.15B25,2013-07-08 13:11:00,
2013-07-08 09:16:00,80.2,76.0,30.18,ENE,67,3.6,3.6,87,0.00,,,0.00,WeatherCatV1.15B25,2013-07-08 13:16:00,
2013-07-08 09:21:00,80.6,76.3,30.18,NE,45,0.0,0.0,87,0.00,,,0.00,WeatherCatV1.15B25,2013-07-08 13:21:00,
2013-07-08 09:26:00,81.3,76.7,30.18,NE,45,0.9,4.7,86,0.00,,,0.00,WeatherCatV1.15B25,2013-07-08 13:26:00,
2013-07-08 09:31:00,81.7,77.1,30.18,North,0,1.6,1.6,86,0.00,,,0.00,WeatherCatV1.15B25,2013-07-08 13:31:00,
2013-07-08 09:36:00,82.0,77.1,30.18,SSW,202,0.0,0.0,85,0.00,,,0.00,WeatherCatV1.15B25,2013-07-08 13:36:00,
2013-07-08 09:41:00,82.0,76.7,30.19,NE,45,3.8,3.8,84,0.00,,,0.00,WeatherCatV1.15B25,2013-07-08 13:41:00,
2013-07-08 09:46:00,82.2,76.9,30.18,NE,45,2.2,2.7,84,0.00,,,0.00,WeatherCatV1.15B25,2013-07-08 13:46:00,
2013-07-08 09:51:00,82.6,77.3,30.18,SSE,157,0.0,0.0,84,0.00,,,0.00,WeatherCatV1.15B25,2013-07-08 13:51:00,
2013-07-08 09:56:00,83.1,77.4,30.18,SSW,202,0.0,0.0,83,0.00,,,0.00,WeatherCatV1.15B25,2013-07-08 13:56:00,
2013-07-08 10:01:00,83.1,77.4,30.18,East,90,0.0,0.0,83,0.00,,,0.00,WeatherCatV1.15B25,2013-07-08 14:01:00,
2013-07-08 10:06:00,83.3,77.3,30.18,NNE,22,3.8,3.8,82,0.00,,,0.00,WeatherCatV1.15B25,2013-07-08 14:06:00,
2013-07-08 10:11:00,83.8,77.7,30.18,SE,135,0.0,0.0,82,0.00,,,0.00,WeatherCatV1.15B25,2013-07-08 14:11:00,
2013-07-08 10:16:00,84.0,77.9,30.18,SSW,202,0.0,0.0,82,0.00,,,0.00,WeatherCatV1.15B25,2013-07-08 14:16:00,
2013-07-08 10:21:00,84.0,77.5,30.18,West,270,0.0,0.0,81,0.00,,,0.00,WeatherCatV1.15B25,2013-07-08 14:21:00,
2013-07-08 10:26:00,84.0,77.5,30.19,ESE,112,0.0,0.0,81,0.00,,,0.00,WeatherCatV1.15B25,2013-07-08 14:26:00,
2013-07-08 10:31:00,83.8,77.4,30.19,East,90,0.9,0.9,81,0.00,,,0.00,WeatherCatV1.15B25,2013-07-08 14:31:00,
2013-07-08 10:36:00,83.8,77.4,30.19,SSE,157,0.0,0.0,81,0.00,,,0.00,WeatherCatV1.15B25,2013-07-08 14:36:00,
2013-07-08 10:41:00,83.7,77.2,30.19,SE,135,0.0,2.5,81,0.00,,,0.00,WeatherCatV1.15B25,2013-07-08 14:41:00,
2013-07-08 10:46:00,83.8,77.4,30.19,NNE,22,3.8,3.8,81,0.00,,,0.00,WeatherCatV1.15B25,2013-07-08 14:46:00,
2013-07-08 10:51:00,84.0,77.5,30.19,ESE,112,0.0,0.0,81,0.00,,,0.00,WeatherCatV1.15B25,2013-07-08 14:51:00,
2013-07-08 10:56:00,84.0,77.2,30.19,South,180,0.0,0.0,80,0.00,,,0.00,WeatherCatV1.15B25,2013-07-08 14:56:00,
2013-07-08 11:01:00,84.0,77.2,30.19,East,90,0.0,0.0,80,0.00,,,0.00,WeatherCatV1.15B25,2013-07-08 15:01:00,
2013-07-08 11:06:00,84.0,77.2,30.19,South,180,0.0,0.0,80,0.00,,,0.00,WeatherCatV1.15B25,2013-07-08 15:06:00,
2013-07-08 11:11:00,84.2,77.4,30.20,West,270,0.0,0.0,80,0.00,,,0.00,WeatherCatV1.15B25,2013-07-08 15:11:00,
2013-07-08 11:16:00,84.2,77.4,30.20,SW,225,0.0,0.0,80,0.00,,,0.00,WeatherCatV1.15B25,2013-07-08 15:16:00,
2013-07-08 11:21:00,84.0,77.2,30.20,West,270,0.0,0.0,80,0.00,,,0.00,WeatherCatV1.15B25,2013-07-08 15:21:00,
2013-07-08 11:26:00,84.0,77.2,30.20,SE,135,0.0,0.0,80,0.00,,,0.00,WeatherCatV1.15B25,2013-07-08 15:26:00,
2013-07-08 11:31:00,84.0,77.2,30.19,WSW,247,0.0,0.0,80,0.00,,,0.00,WeatherCatV1.15B25,2013-07-08 15:31:00,
2013-07-08 11:36:00,84.2,77.4,30.20,ENE,67,1.1,1.1,80,0.00,,,0.00,WeatherCatV1.15B25,2013-07-08 15:36:00,
2013-07-08 11:41:00,84.4,77.5,30.20,SSE,157,0.0,0.0,80,0.00,,,0.00,WeatherCatV1.15B25,2013-07-08 15:41:00,
2013-07-08 11:46:00,84.7,77.9,30.19,East,90,1.3,1.3,80,0.00,,,0.00,WeatherCatV1.15B25,2013-07-08 15:46:00,
2013-07-08 11:51:00,84.7,77.9,30.20,WNW,292,0.0,0.0,80,0.00,,,0.00,WeatherCatV1.15B25,2013-07-08 15:51:00,
2013-07-08 11:56:00,84.9,78.1,30.20,East,90,0.0,1.8,80,0.00,,,0.00,WeatherCatV1.15B25,2013-07-08 15:56:00,
2013-07-08 12:01:00,85.6,78.4,30.19,ESE,112,0.0,0.0,79,0.00,,,0.00,WeatherCatV1.15B25,2013-07-08 16:01:00,
2013-07-08 12:06:00,85.8,78.6,30.19,South,180,0.0,0.0,79,0.00,,,0.00,WeatherCatV1.15B25,2013-07-08 16:06:00,
2013-07-08 12:11:00,85.8,78.2,30.19,SSW,202,0.0,0.0,78,0.00,,,0.00,WeatherCatV1.15B25,2013-07-08 16:11:00,
2013-07-08 12:16:00,86.2,78.5,30.19,ESE,112,0.0,1.6,78,0.00,,,0.00,WeatherCatV1.15B25,2013-07-08 16:16:00,
2013-07-08 12:21:00,86.5,78.9,30.19,WSW,247,0.0,0.0,78,0.00,,,0.00,WeatherCatV1.15B25,2013-07-08 16:21:00,
2013-07-08 12:26:00,86.7,78.7,30.19,SW,225,0.0,0.0,77,0.00,,,0.00,WeatherCatV1.15B25,2013-07-08 16:26:00,
2013-07-08 12:31:00,87.1,79.0,30.19,South,180,0.0,0.0,77,0.00,,,0.00,WeatherCatV1.15B25,2013-07-08 16:31:00,
2013-07-08 12:36:00,87.1,78.6,30.19,SE,135,0.0,0.0,76,0.00,,,0.00,WeatherCatV1.15B25,2013-07-08 16:36:00,
2013-07-08 12:41:00,87.3,78.4,30.19,ENE,67,0.0,0.0,75,0.00,,,0.00,WeatherCatV1.15B25,2013-07-08 16:41:00,
2013-07-08 12:46:00,87.6,78.7,30.19,ESE,112,0.0,0.0,75,0.00,,,0.00,WeatherCatV1.15B25,2013-07-08 16:46:00,
2013-07-08 12:51:00,87.6,78.3,30.19,ENE,67,0.9,0.9,74,0.00,,,0.00,WeatherCatV1.15B25,2013-07-08 16:51:00,
2013-07-08 12:56:00,88.3,78.6,30.19,ENE,67,0.0,0.0,73,0.00,,,0.00,WeatherCatV1.15B25,2013-07-08 16:56:00,
2013-07-08 13:01:00,88.5,78.7,30.18,ENE,67,1.8,1.8,73,0.00,,,0.00,WeatherCatV1.15B25,2013-07-08 17:01:00,
2013-07-08 13:06:00,89.2,79.4,30.18,NE,45,2.0,2.0,73,0.00,,,0.00,WeatherCatV1.15B25,2013-07-08 17:06:00,
2013-07-08 13:11:00,89.8,79.6,30.19,SE,135,0.0,0.0,72,0.00,,,0.00,WeatherCatV1.15B25,2013-07-08 17:11:00,
2013-07-08 13:16:00,90.0,79.3,30.18,West,270,0.0,0.0,71,0.00,,,0.00,WeatherCatV1.15B25,2013-07-08 17:16:00,
2013-07-08 13:21:00,90.3,79.7,30.19,West,270,0.0,0.0,71,0.00,,,0.00,WeatherCatV1.15B25,2013-07-08 17:21:00,
2013-07-08 13:26:00,91.0,79.9,30.18,NNE,22,4.0,4.0,70,0.00,,,0.00,WeatherCatV1.15B25,2013-07-08 17:26:00,
2013-07-08 13:31:00,91.6,80.4,30.18,ESE,112,0.0,0.0,70,0.00,,,0.00,WeatherCatV1.15B25,2013-07-08 17:31:00,
2013-07-08 13:36:00,92.1,80.5,30.18,SSW,202,0.0,0.0,69,0.00,,,0.00,WeatherCatV1.15B25,2013-07-08 17:36:00,
2013-07-08 13:41:00,92.1,80.0,30.18,ENE,67,1.6,1.6,68,0.00,,,0.00,WeatherCatV1.15B25,2013-07-08 17:41:00,
2013-07-08 13:46:00,92.5,80.4,30.18,SSE,157,0.0,0.0,68,0.00,,,0.00,WeatherCatV1.15B25,2013-07-08 17:46:00,
2013-07-08 13:51:00,92.5,80.4,30.17,SSW,202,0.0,0.0,68,0.00,,,0.00,WeatherCatV1.15B25,2013-07-08 17:51:00,
2013-07-08 13:56:00,92.1,79.6,30.17,SSE,157,0.0,0.0,67,0.00,,,0.00,WeatherCatV1.15B25,2013-07-08 17:56:00,
2013-07-08 14:01:00,91.9,79.4,30.18,ENE,67,0.9,0.9,67,0.00,,,0.00,WeatherCatV1.15B25,2013-07-08 18:01:00,
2013-07-08 14:06:00,92.1,79.6,30.17,ENE,67,0.9,0.9,67,0.00,,,0.00,WeatherCatV1.15B25,2013-07-08 18:06:00,
2013-07-08 14:11:00,92.5,79.9,30.17,SSW,202,0.0,2.9,67,0.00,,,0.00,WeatherCatV1.15B25,2013-07-08 18:11:00,
2013-07-08 14:16:00,92.5,79.9,30.17,SSE,157,0.0,0.0,67,0.00,,,0.00,WeatherCatV1.15B25,2013-07-08 18:16:00,
2013-07-08 14:21:00,93.0,80.0,30.17,WSW,247,0.0,0.0,66,0.00,,,0.00,WeatherCatV1.15B25,2013-07-08 18:21:00,
2013-07-08 14:26:00,93.0,79.5,30.17,NE,45,2.5,2.5,65,0.00,,,0.00,WeatherCatV1.15B25,2013-07-08 18:26:00,
2013-07-08 14:31:00,93.2,79.7,30.17,South,180,0.9,0.9,65,0.00,,,0.00,WeatherCatV1.15B25,2013-07-08 18:31:00,
2013-07-08 14:37:00,93.0,79.1,30.17,SSW,202,0.0,0.0,64,0.00,,,0.00,WeatherCatV1.15B25,2013-07-08 18:37:00,
2013-07-08 14:42:00,93.0,79.1,30.17,ESE,112,0.0,0.9,64,0.00,,,0.00,WeatherCatV1.15B25,2013-07-08 18:42:00,
2013-07-08 14:47:00,93.0,79.1,30.17,SE,135,0.0,1.1,64,0.00,,,0.00,WeatherCatV1.15B25,2013-07-08 18:47:00,
2013-07-08 14:52:00,93.0,79.1,30.17,South,180,0.9,0.9,64,0.00,,,0.00,WeatherCatV1.15B25,2013-07-08 18:52:00,
2013-07-08 14:57:00,92.8,78.9,30.17,NE,45,2.9,2.9,64,0.00,,,0.00,WeatherCatV1.15B25,2013-07-08 18:57:00,
2013-07-08 15:02:00,92.8,78.9,30.17,South,180,0.0,0.0,64,0.00,,,0.00,WeatherCatV1.15B25,2013-07-08 19:02:00,
2013-07-08 15:07:00,92.8,78.9,30.16,SSE,157,0.0,0.0,64,0.00,,,0.00,WeatherCatV1.15B25,2013-07-08 19:07:00,
2013-07-08 15:12:00,92.3,78.8,30.17,SSE,157,0.0,0.0,65,0.00,,,0.00,WeatherCatV1.15B25,2013-07-08 19:12:00,
2013-07-08 15:17:00,92.3,78.8,30.17,SE,135,0.0,0.0,65,0.00,,,0.00,WeatherCatV1.15B25,2013-07-08 19:17:00,
2013-07-08 15:22:00,92.1,78.6,30.16,WNW,292,0.0,0.0,65,0.00,,,0.00,WeatherCatV1.15B25,2013-07-08 19:22:00,
2013-07-08 15:27:00,91.8,78.7,30.16,West,270,0.0,0.0,66,0.00,,,0.00,WeatherCatV1.15B25,2013-07-08 19:27:00,
2013-07-08 15:32:00,91.2,78.2,30.16,ESE,112,0.9,0.9,66,0.00,,,0.00,WeatherCatV1.15B25,2013-07-08 19:32:00,
2013-07-08 15:37:00,91.0,78.5,30.16,South,180,0.9,0.9,67,0.00,,,0.00,WeatherCatV1.15B25,2013-07-08 19:37:00,
2013-07-08 15:42:00,90.3,77.9,30.16,SSE,157,0.9,0.9,67,0.00,,,0.00,WeatherCatV1.15B25,2013-07-08 19:42:00,
2013-07-08 15:47:00,89.8,77.4,30.16,SW,225,0.0,0.0,67,0.00,,,0.00,WeatherCatV1.15B25,2013-07-08 19:47:00,
2013-07-08 15:52:00,88.9,77.0,30.16,SSE,157,0.9,0.9,68,0.00,,,0.00,WeatherCatV1.15B25,2013-07-08 19:52:00,
2013-07-08 15:57:00,88.5,77.5,30.16,SE,135,0.0,0.0,70,0.00,,,0.00,WeatherCatV1.15B25,2013-07-08 19:57:00,
2013-07-08 16:02:00,88.7,77.7,30.16,SSE,157,0.0,0.0,70,0.00,,,0.00,WeatherCatV1.15B25,2013-07-08 20:02:00,
2013-07-08 16:07:00,88.9,77.9,30.15,South,180,0.0,0.0,70,0.00,,,0.00,WeatherCatV1.15B25,2013-07-08 20:07:00,
2013-07-08 16:12:00,88.3,76.9,30.15,SE,135,0.0,0.0,69,0.00,,,0.00,WeatherCatV1.15B25,2013-07-08 20:12:00,
2013-07-08 16:17:00,88.3,77.4,30.14,SW,225,0.7,0.7,70,0.00,,,0.00,WeatherCatV1.15B25,2013-07-08 20:17:00,
2013-07-08 16:22:00,88.2,77.2,30.15,SE,135,0.0,0.0,70,0.00,,,0.00,WeatherCatV1.15B25,2013-07-08 20:22:00,
2013-07-08 16:27:00,88.2,77.6,30.15,SSE,157,0.0,0.0,71,0.00,,,0.00,WeatherCatV1.15B25,2013-07-08 20:27:00,
2013-07-08 16:32:00,88.0,77.0,30.15,South,180,0.0,0.0,70,0.00,,,0.00,WeatherCatV1.15B25,2013-07-08 20:32:00,
2013-07-08 16:37:00,87.8,77.2,30.15,SSW,202,0.0,0.0,71,0.00,,,0.00,WeatherCatV1.15B25,2013-07-08 20:37:00,
2013-07-08 16:42:00,88.3,77.8,30.14,SE,135,0.0,0.0,71,0.00,,,0.00,WeatherCatV1.15B25,2013-07-08 20:42:00,
2013-07-08 16:47:00,88.7,78.1,30.14,SSE,157,0.0,0.0,71,0.00,,,0.00,WeatherCatV1.15B25,2013-07-08 20:47:00,
2013-07-08 16:52:00,88.9,78.3,30.13,NW,315,0.0,0.0,71,0.00,,,0.00,WeatherCatV1.15B25,2013-07-08 20:52:00,
2013-07-08 16:57:00,88.5,77.5,30.14,SSE,157,0.0,0.0,70,0.00,,,0.00,WeatherCatV1.15B25,2013-07-08 20:57:00,
2013-07-08 17:02:00,88.3,77.8,30.14,South,180,0.0,0.0,71,0.00,,,0.00,WeatherCatV1.15B25,2013-07-08 21:02:00,
2013-07-08 17:07:00,88.0,77.4,30.14,South,180,0.0,0.0,71,0.00,,,0.00,WeatherCatV1.15B25,2013-07-08 21:07:00,
2013-07-08 17:12:00,87.6,77.1,30.14,SSE,157,0.0,1.1,71,0.00,,,0.00,WeatherCatV1.15B25,2013-07-08 21:12:00,
2013-07-08 17:17:00,87.6,77.1,30.13,South,180,0.0,0.0,71,0.00,,,0.00,WeatherCatV1.15B25,2013-07-08 21:17:00,
2013-07-08 17:22:00,87.4,76.9,30.13,ENE,67,0.0,0.0,71,0.00,,,0.00,WeatherCatV1.15B25,2013-07-08 21:22:00,
2013-07-08 17:27:00,87.3,76.7,30.13,SE,135,0.0,0.0,71,0.00,,,0.00,WeatherCatV1.15B25,2013-07-08 21:27:00,
2013-07-08 17:32:00,87.3,76.7,30.13,ESE,112,0.0,0.0,71,0.00,,,0.00,WeatherCatV1.15B25,2013-07-08 21:32:00,
2013-07-08 17:37:00,86.9,76.4,30.13,SE,135,0.0,0.0,71,0.00,,,0.00,WeatherCatV1.15B25,2013-07-08 21:37:00,
2013-07-08 17:46:00,86.2,76.2,30.13,SSE,157,0.0,0.0,72,0.00,,,0.00,WeatherCatV1.15B25,2013-07-08 21:46:00,
2013-07-08 17:51:00,85.8,76.2,30.13,SSE,157,0.0,0.0,73,0.00,,,0.00,WeatherCatV1.15B25,2013-07-08 21:51:00,
2013-07-08 17:56:00,85.6,76.4,30.13,SE,135,0.0,0.0,74,0.00,,,0.00,WeatherCatV1.15B25,2013-07-08 21:56:00,
2013-07-08 18:01:00,85.5,76.2,30.12,SE,135,0.0,0.0,74,0.00,,,0.00,WeatherCatV1.15B25,2013-07-08 22:01:00,
2013-07-08 18:06:00,85.1,75.9,30.12,SE,135,0.0,0.0,74,0.00,,,0.00,WeatherCatV1.15B25,2013-07-08 22:06:00,
2013-07-08 18:11:00,84.9,76.1,30.13,SE,135,0.0,0.0,75,0.00,,,0.00,WeatherCatV1.15B25,2013-07-08 22:11:00,
2013-07-08 18:16:00,84.9,76.1,30.12,SSE,157,0.0,0.9,75,0.00,,,0.00,WeatherCatV1.15B25,2013-07-08 22:16:00,
2013-07-08 18:21:00,84.9,76.1,30.12,SSE,157,0.9,0.9,75,0.00,,,0.00,WeatherCatV1.15B25,2013-07-08 22:21:00,
2013-07-08 18:26:00,84.7,75.9,30.13,SSE,157,0.0,0.0,76,0.00,,,0.00,WeatherCatV1.15B25,2013-07-08 22:26:00,
2013-07-08 18:31:00,84.6,76.1,30.12,SE,135,0.9,0.9,76,0.00,,,0.00,WeatherCatV1.15B25,2013-07-08 22:31:00,
2013-07-08 18:36:00,84.6,76.1,30.12,SSE,157,0.0,0.0,76,0.00,,,0.00,WeatherCatV1.15B25,2013-07-08 22:36:00,
2013-07-08 18:41:00,84.4,75.8,30.12,SE,135,0.0,0.0,76,0.00,,,0.00,WeatherCatV1.15B25,2013-07-08 22:41:00,
2013-07-08 18:46:00,84.2,75.8,30.11,SSE,157,0.0,0.0,76,0.00,,,0.00,WeatherCatV1.15B25,2013-07-08 22:46:00,
2013-07-08 18:51:00,84.0,75.6,30.12,SE,135,0.0,0.0,76,0.00,,,0.00,WeatherCatV1.15B25,2013-07-08 22:51:00,
2013-07-08 18:56:00,83.8,75.4,30.12,SSE,157,0.0,0.0,76,0.00,,,0.00,WeatherCatV1.15B25,2013-07-08 22:56:00,
2013-07-08 19:01:00,83.8,75.8,30.12,South,180,0.0,0.0,77,0.00,,,0.00,WeatherCatV1.15B25,2013-07-08 23:01:00,
2013-07-08 19:06:00,83.7,75.7,30.12,South,180,0.0,0.0,77,0.00,,,0.00,WeatherCatV1.15B25,2013-07-08 23:06:00,
2013-07-08 19:11:00,83.3,75.3,30.12,SE,135,0.0,0.0,77,0.00,,,0.00,WeatherCatV1.15B25,2013-07-08 23:11:00,
2013-07-08 19:16:00,83.3,75.3,30.13,SSE,157,0.0,0.0,77,0.00,,,0.00,WeatherCatV1.15B25,2013-07-08 23:16:00,
2013-07-08 19:21:00,83.1,75.2,30.13,South,180,0.0,0.0,77,0.00,,,0.00,WeatherCatV1.15B25,2013-07-08 23:21:00,
2013-07-08 19:26:00,82.9,75.4,30.12,SE,135,0.0,0.0,78,0.00,,,0.00,WeatherCatV1.15B25,2013-07-08 23:26:00,
2013-07-08 19:31:00,82.8,75.2,30.12,South,180,0.0,0.0,78,0.00,,,0.00,WeatherCatV1.15B25,2013-07-08 23:31:00,
2013-07-08 19:36:00,82.6,75.1,30.12,SSE,157,0.0,0.0,78,0.00,,,0.00,WeatherCatV1.15B25,2013-07-08 23:36:00,
2013-07-08 19:41:00,82.4,74.9,30.12,SE,135,0.0,0.0,78,0.00,,,0.00,WeatherCatV1.15B25,2013-07-08 23:41:00,
2013-07-08 19:46:00,82.2,74.7,30.13,SSE,157,0.0,0.0,78,0.00,,,0.00,WeatherCatV1.15B25,2013-07-08 23:46:00,
2013-07-08 19:51:00,82.2,74.7,30.13,SSE,157,0.0,0.0,78,0.00,,,0.00,WeatherCatV1.15B25,2013-07-08 23:51:00,
2013-07-08 19:56:00,82.0,75.0,30.13,SSE,157,0.0,0.0,79,0.00,,,0.00,WeatherCatV1.15B25,2013-07-08 23:56:00,
2013-07-08 20:01:00,81.7,74.6,30.13,ESE,112,0.0,0.0,79,0.00,,,0.00,WeatherCatV1.15B25,2013-07-09 00:01:00,
2013-07-08 20:06:00,81.5,74.8,30.14,SSW,202,0.0,0.0,80,0.00,,,0.00,WeatherCatV1.15B25,2013-07-09 00:06:00,
2013-07-08 20:11:00,81.5,74.8,30.14,SE,135,0.0,0.0,80,0.00,,,0.00,WeatherCatV1.15B25,2013-07-09 00:11:00,
2013-07-08 20:16:00,81.1,74.5,30.14,SE,135,0.0,0.0,80,0.00,,,0.00,WeatherCatV1.15B25,2013-07-09 00:16:00,
2013-07-08 20:21:00,81.1,74.5,30.14,SSE,157,0.0,0.0,80,0.00,,,0.00,WeatherCatV1.15B25,2013-07-09 00:21:00,
2013-07-08 20:26:00,81.0,74.3,30.14,SSW,202,0.0,0.0,80,0.00,,,0.00,WeatherCatV1.15B25,2013-07-09 00:26:00,
2013-07-08 20:31:00,80.6,74.3,30.14,SSW,202,0.0,0.0,81,0.00,,,0.00,WeatherCatV1.15B25,2013-07-09 00:31:00,
2013-07-08 20:36:00,80.4,74.1,30.14,South,180,0.0,0.0,81,0.00,,,0.00,WeatherCatV1.15B25,2013-07-09 00:36:00,
2013-07-08 20:41:00,80.2,74.3,30.14,SSE,157,0.0,0.0,82,0.00,,,0.00,WeatherCatV1.15B25,2013-07-09 00:41:00,
2013-07-08 20:46:00,80.2,74.3,30.14,SSE,157,0.0,0.0,82,0.00,,,0.00,WeatherCatV1.15B25,2013-07-09 00:46:00,
2013-07-08 20:51:00,79.9,73.9,30.14,SSE,157,0.0,0.0,82,0.00,,,0.00,WeatherCatV1.15B25,2013-07-09 00:51:00,
2013-07-08 20:56:00,79.9,73.9,30.13,SSE,157,0.0,0.0,82,0.00,,,0.00,WeatherCatV1.15B25,2013-07-09 00:56:00,
2013-07-08 21:01:00,79.7,73.7,30.13,SSE,157,0.0,0.0,82,0.00,,,0.00,WeatherCatV1.15B25,2013-07-09 01:01:00,
2013-07-08 21:06:00,79.7,73.7,30.14,SSE,157,0.0,0.0,82,0.00,,,0.00,WeatherCatV1.15B25,2013-07-09 01:06:00,
2013-07-08 21:11:00,79.5,73.9,30.13,South,180,0.0,0.0,83,0.00,,,0.00,WeatherCatV1.15B25,2013-07-09 01:11:00,
2013-07-08 21:16:00,79.5,73.9,30.13,South,180,0.0,0.0,83,0.00,,,0.00,WeatherCatV1.15B25,2013-07-09 01:16:00,
2013-07-08 21:21:00,79.5,73.9,30.13,SW,225,0.0,0.0,83,0.00,,,0.00,WeatherCatV1.15B25,2013-07-09 01:21:00,
2013-07-08 21:26:00,79.3,73.7,30.14,SSW,202,0.0,0.0,83,0.00,,,0.00,WeatherCatV1.15B25,2013-07-09 01:26:00,
2013-07-08 21:31:00,79.3,74.1,30.14,SSW,202,0.0,0.0,84,0.00,,,0.00,WeatherCatV1.15B25,2013-07-09 01:31:00,
2013-07-08 21:36:00,79.3,74.1,30.14,SSW,202,0.0,0.0,84,0.00,,,0.00,WeatherCatV1.15B25,2013-07-09 01:36:00,
2013-07-08 21:41:00,79.2,73.9,30.15,SW,225,0.0,0.0,84,0.00,,,0.00,WeatherCatV1.15B25,2013-07-09 01:41:00,
2013-07-08 21:46:00,79.2,73.9,30.15,SW,225,0.0,0.0,84,0.00,,,0.00,WeatherCatV1.15B25,2013-07-09 01:46:00,
2013-07-08 21:51:00,79.0,73.7,30.15,South,180,0.0,0.0,84,0.00,,,0.00,WeatherCatV1.15B25,2013-07-09 01:51:00,
2013-07-08 21:56:00,79.0,73.7,30.15,South,180,0.0,0.0,84,0.00,,,0.00,WeatherCatV1.15B25,2013-07-09 01:56:00,
2013-07-08 22:01:00,79.0,73.7,30.15,South,180,0.0,0.0,84,0.00,,,0.00,WeatherCatV1.15B25,2013-07-09 02:01:00,
2013-07-08 22:06:00,78.6,73.4,30.16,South,180,0.0,0.0,84,0.00,,,0.00,WeatherCatV1.15B25,2013-07-09 02:06:00,
2013-07-08 22:11:00,78.6,73.4,30.16,South,180,0.0,0.0,84,0.00,,,0.00,WeatherCatV1.15B25,2013-07-09 02:11:00,
2013-07-08 22:16:00,78.6,73.8,30.16,SE,135,0.0,0.0,85,0.00,,,0.00,WeatherCatV1.15B25,2013-07-09 02:16:00,
2013-07-08 22:21:00,78.6,73.8,30.16,SE,135,0.0,0.0,85,0.00,,,0.00,WeatherCatV1.15B25,2013-07-09 02:21:00,
2013-07-08 22:26:00,78.6,73.8,30.17,SE,135,0.0,0.0,85,0.00,,,0.00,WeatherCatV1.15B25,2013-07-09 02:26:00,
2013-07-08 22:31:00,78.6,73.8,30.17,SE,135,0.0,0.0,85,0.00,,,0.00,WeatherCatV1.15B25,2013-07-09 02:31:00,
2013-07-08 22:36:00,78.6,73.8,30.17,SE,135,0.0,0.0,85,0.00,,,0.00,WeatherCatV1.15B25,2013-07-09 02:36:00,
2013-07-08 22:41:00,78.6,73.8,30.17,SE,135,0.0,0.0,85,0.00,,,0.00,WeatherCatV1.15B25,2013-07-09 02:41:00,
2013-07-08 22:46:00,78.4,73.9,30.17,SE,135,0.0,0.0,86,0.00,,,0.00,WeatherCatV1.15B25,2013-07-09 02:46:00,
2013-07-08 22:51:00,78.4,73.9,30.17,SE,135,0.0,0.0,86,0.00,,,0.00,WeatherCatV1.15B25,2013-07-09 02:51:00,
2013-07-08 22:56:00,78.4,73.9,30.17,SE,135,0.0,0.0,86,0.00,,,0.00,WeatherCatV1.15B25,2013-07-09 02:56:00,
2013-07-08 23:01:00,78.4,73.9,30.17,SE,135,0.0,0.0,86,0.00,,,0.00,WeatherCatV1.15B25,2013-07-09 03:01:00,
2013-07-08 23:06:00,78.4,73.9,30.17,SE,135,0.0,0.0,86,0.00,,,0.00,WeatherCatV1.15B25,2013-07-09 03:06:00,
2013-07-08 23:11:00,78.4,73.9,30.17,SSE,157,0.0,0.0,86,0.00,,,0.00,WeatherCatV1.15B25,2013-07-09 03:11:00,
2013-07-08 23:16:00,78.4,73.9,30.17,SSE,157,0.0,0.0,86,0.00,,,0.00,WeatherCatV1.15B25,2013-07-09 03:16:00,
2013-07-08 23:21:00,78.3,73.8,30.18,SSE,157,0.0,0.0,86,0.00,,,0.00,WeatherCatV1.15B25,2013-07-09 03:21:00,
2013-07-08 23:26:00,78.3,74.1,30.18,SSW,202,0.0,0.0,87,0.00,,,0.00,WeatherCatV1.15B25,2013-07-09 03:26:00,
2013-07-08 23:31:00,78.3,74.1,30.18,SSW,202,0.0,0.0,87,0.00,,,0.00,WeatherCatV1.15B25,2013-07-09 03:31:00,
2013-07-08 23:36:00,78.1,73.9,30.17,SW,225,0.0,0.0,87,0.00,,,0.00,WeatherCatV1.15B25,2013-07-09 03:36:00,
2013-07-08 23:41:00,78.1,73.9,30.18,SW,225,0.0,0.0,87,0.00,,,0.00,WeatherCatV1.15B25,2013-07-09 03:41:00,
2013-07-08 23:46:00,78.1,73.9,30.18,SW,225,0.0,0.0,87,0.00,,,0.00,WeatherCatV1.15B25,2013-07-09 03:46:00,
2013-07-08 23:51:00,78.1,73.9,30.17,SW,225,0.0,0.0,87,0.00,,,0.00,WeatherCatV1.15B25,2013-07-09 03:51:00,
2013-07-08 23:56:00,78.1,73.9,30.17,SW,225,0.0,0.0,87,0.00,,,0.00,WeatherCatV1.15B25,2013-07-09 03:56:00,